Regional Weather Roundup
Issued by NWS

Home | Current Version | Previous Version | Graphics & Text | Print | Product List | Glossary On
Versions: 1 2 3 4 5 6 7 8 9 10 11 12 13 14 15 16 17 18 19 20 21 22 23 24 25 26 27 28 29 30 31 32 33 34 35 36 37 38 39 40 41 42 43 44 45 46 47 48 49 50
000
ASUS43 KDTX 051601
RWRMI
MICHIGAN HOURLY REGIONAL WEATHER ROUNDUP
NATIONAL WEATHER SERVICE DETROIT/PONTIAC MI
1100 AM EST FRI FEB 05 2016

NOTE: "FAIR" INDICATES FEW OR NO CLOUDS BELOW 12,000 FEET WITH NO
SIGNIFICANT WEATHER AND/OR OBSTRUCTION TO VISIBILITY.

MIZ047>049-052>055-059>063-066>070-074>076-081>083-051700-
SOUTHEAST LOWER MICHIGAN

CITY           SKY/WX    TMP DP  RH WIND       PRES   REMARKS
ADRIAN         SUNNY     42  22  44 SW6       30.36S
ALMA           PTSUNNY   30  26  86 SW6       30.32R WCI  24
ANN ARBOR      SUNNY     30  21  69 S6        30.34S WCI  24
BAD AXE        CLOUDY    28  23  79 SW6       30.32R WCI  22
CARO           CLOUDY    31  24  75 SW7       30.31S WCI  24
DETROIT CITY   SUNNY     30  20  66 SW7       30.36S WCI  23
DETROIT        MOSUNNY   31  22  69 S6        30.37S WCI  25
FLINT          PTSUNNY   31  22  69 S7        30.32S WCI  24
GROSSE ILE     MOSUNNY   32  25  74 S7        30.36S WCI  26
HILLSDALE      MOSUNNY   29  20  71 SW7       30.32S WCI  21
HOWELL         SUNNY     30  22  72 SW5       30.32R WCI  25

CITY           SKY/WX    TMP DP  RH WIND       PRES   REMARKS
JACKSON        SUNNY     30  20  66 SW7       30.32S WCI  23
LAMBERTVILLE   SUNNY     32  22  67 SW5       30.38R WCI  27
LANSING        MOSUNNY   30  22  72 S10       30.32S WCI  21
LAPEER         CLOUDY    29  23  79 SW5       30.32S WCI  24
MASON          SUNNY     29  21  72 SW6       30.32S WCI  23
MONROE         SUNNY     31  22  69 SW5       30.37R WCI  26
MT. CLEMENS    MOSUNNY   31  20  63 S5        30.34R WCI  27
PONTIAC        MOSUNNY   29  20  69 SW7       30.32R WCI  22
PORT HOPE        N/A     28  21  75 SW8       30.30R WCI  20
PORT HURON     CLOUDY    28  21  74 SW6       30.35S WCI  22
TRI CITIES     CLOUDY    30  22  72 S9        30.32R WCI  22
MIDLAND        CLOUDY    29  23  76 SW5       30.31S WCI  24
TROY           SUNNY     30  21  68 SW3       30.37R
SAGINAW HB     CLOUDY    30  27  86 SW8       30.32R WCI  23
$$
MIZ043>046-050>051-056>058-064>065-071>073-077>080-051700-
SOUTHWEST LOWER MICHIGAN

CITY           SKY/WX    TMP DP  RH WIND       PRES   REMARKS
BATTLE CREEK   PTSUNNY   28  21  75 S6        30.32S WCI  22
BENTON HARBOR  CLOUDY    31  25  78 SW6       30.34R WCI  25
BIG RAPIDS     FLURRIES  29  26  88 W5        30.28S WCI  24
COLDWATER      SUNNY     30  21  69 S3        30.32F
FREMONT        CLOUDY    28  27  94 CALM      30.30S
HOLLAND        CLOUDY    30  26  85 S6        30.32S WCI  24
GRAND RAPIDS   LGT SNOW  29  24  82 SW5       30.31S WCI  24
IONIA          CLOUDY    29  23  78 SW6       30.31R WCI  23
KALAMAZOO      MOSUNNY   29  21  72 SW7       30.33R WCI  22
LUDINGTON      CLOUDY    29  24  81 NW8       30.31S WCI  21
MARSHALL       CLOUDY    29  20  71 SW5       30.31F WCI  24
MOUNT PLEASANT CLOUDY    30  24  77 SW5       30.30R WCI  25
MUSKEGON       LGT SNOW  31  26  82 CALM      30.32S
SOUTH HAVEN    LGT SNOW  30  26  86 S3        30.33R
$$
MIZ016>042-051700-
NORTHERN LOWER MICHIGAN

CITY           SKY/WX    TMP DP  RH WIND       PRES   REMARKS
ALPENA         FLURRIES  26  19  74 W6        30.28R WCI  19
BEAVER ISLAND  PTSUNNY   28  19  69 NW8       30.28R WCI  19
BELLAIRE       LGT SNOW  28  25  87 CALM      30.28S
CADILLAC       CLOUDY    26  23  89 SW7       30.24F WCI  18
CHARLEVOIX     FLURRIES  28  22  76 NW6       30.30S WCI  22
FRANKFORT      LGT SNOW  29  23  79 NW5       30.29S WCI  24
GAYLORD        CLOUDY    26  22  84 W7        30.22S WCI  18
GRAYLING       CLOUDY    25  21  86 W7        30.26S WCI  17
HARBOR SPRINGS CLOUDY    29  20  71 W7        30.26S WCI  21
MANISTEE       CLOUDY    28  19  69 W7        30.30S WCI  21
OSCODA         CLOUDY    26  21  82 SW5       30.29S WCI  20
PELLSTON       CLOUDY    26  19  74 NW7       30.27R WCI  18
ROGERS CITY    CLOUDY    27  21  80 W6        30.27S WCI  20
TRAVERSE CITY  LGT SNOW  28  22  78 SW3       30.28S
$$
MIZ007>008-015-051700-
EASTERN UPPER MICHIGAN

CITY           SKY/WX    TMP DP  RH WIND       PRES   REMARKS
KINROSS        CLOUDY    21  19  93 W8        30.23S WCI  12
MACKINAC ISLAN CLOUDY    25  21  84 W8        30.25S WCI  17
NEWBERRY       MOSUNNY   25  15  65 W8        30.24R WCI  16
S. S. MARIE    CLOUDY    27  19  72 W9        30.22R WCI  18
$$
MIZ004>006-011>014-085-051700-
CENTRAL UPPER MICHIGAN

CITY           SKY/WX    TMP DP  RH WIND       PRES   REMARKS
MANISTIQUE     SUNNY     23  15  70 W6        30.28R WCI  16
ESCANABA       SUNNY     23  14  68 NW7       30.30R WCI  15
MENOMINEE      SUNNY     21  10  63 NW6       30.32R WCI  14
SAWYER-GWINN   SUNNY     16  16 100 NW9       30.24S WCI   4
$$
MIZ001>003-009>011-084-051700-
WESTERN UPPER MICHIGAN

CITY           SKY/WX    TMP DP  RH WIND       PRES   REMARKS
IRON MOUNTAIN  SUNNY     18  10  71 W5        30.26S WCI  11
HOUGHTON       PTSUNNY   19  10  68 NW10      30.25R WCI   7
COPPER HARBOR    N/A     23  11  60 N9        30.28R WCI  13
IRONWOOD       PTSUNNY   14   9  79 CALM      30.25S
$$

ABBREVIATIONS USED IN REMARKS
   TC - TEMPERATURE IN CELSIUS
  WCI - WIND CHILL INDEX
   HX - HEAT INDEX
  VSB - VISIBILITY




USA.gov is the U.S. government's official web portal to all federal, state and local government web resources and services.